TimeMDT,TemperatureF,Dew PointF,Humidity,Sea Level PressureIn,VisibilityMPH,Wind Direction,Wind SpeedMPH,Gust SpeedMPH,PrecipitationIn,Events,Conditions,WindDirDegrees,DateUTC
12:15 AM,58.6,28.9,32,30.06,10.0,West,6.9,-,N/A,,Clear,280,2012-10-09 06:15:00
12:35 AM,57.7,28.9,33,30.06,10.0,WSW,6.9,-,N/A,,Clear,250,2012-10-09 06:35:00
12:55 AM,58.3,28.9,33,30.06,10.0,West,9.2,-,N/A,,Clear,260,2012-10-09 06:55:00
1:15 AM,62.6,28.8,28,30.06,10.0,West,8.1,-,N/A,,Clear,270,2012-10-09 07:15:00
1:35 AM,59.9,28.4,30,30.06,10.0,West,9.2,-,N/A,,Clear,270,2012-10-09 07:35:00
2:15 AM,56.3,28.2,34,30.07,10.0,West,5.8,-,N/A,,Clear,270,2012-10-09 08:15:00
2:35 AM,55.9,28.2,35,30.08,10.0,West,4.6,-,N/A,,Clear,260,2012-10-09 08:35:00
2:55 AM,57.7,28.4,33,30.07,10.0,West,8.1,-,N/A,,Clear,270,2012-10-09 08:55:00
3:15 AM,60.3,28.4,30,30.07,10.0,WNW,9.2,-,N/A,,Clear,290,2012-10-09 09:15:00
3:35 AM,59.9,28.2,30,30.07,10.0,WNW,8.1,-,N/A,,Clear,300,2012-10-09 09:35:00
3:55 AM,57.6,28.4,33,30.07,10.0,WNW,10.4,-,N/A,,Clear,290,2012-10-09 09:55:00
4:15 AM,56.8,28.4,34,30.07,10.0,West,9.2,-,N/A,,Clear,280,2012-10-09 10:15:00
4:35 AM,59.5,28.9,31,30.07,10.0,West,10.4,-,N/A,,Clear,280,2012-10-09 10:35:00
4:55 AM,58.5,28.8,32,30.07,10.0,WNW,6.9,-,N/A,,Clear,300,2012-10-09 10:55:00
5:15 AM,60.6,29.3,31,30.07,10.0,NW,8.1,-,N/A,,Clear,310,2012-10-09 11:15:00
5:35 AM,60.3,29.7,31,30.08,10.0,WNW,6.9,-,N/A,,Clear,290,2012-10-09 11:35:00
6:15 AM,56.8,29.7,35,30.08,10.0,West,6.9,-,N/A,,Clear,260,2012-10-09 12:15:00
6:35 AM,55.9,30.0,37,30.09,10.0,West,9.2,-,N/A,,Clear,270,2012-10-09 12:35:00
6:55 AM,55.4,30.6,39,30.09,10.0,West,10.4,-,N/A,,Clear,270,2012-10-09 12:55:00
7:15 AM,56.8,30.6,37,30.09,10.0,West,9.2,-,N/A,,Clear,280,2012-10-09 13:15:00
7:35 AM,56.3,30.7,38,30.09,10.0,West,10.4,-,N/A,,Clear,280,2012-10-09 13:35:00
7:55 AM,59.9,30.9,33,30.10,10.0,West,11.5,-,N/A,,Clear,270,2012-10-09 13:55:00
8:15 AM,59.9,31.3,34,30.11,10.0,West,10.4,-,N/A,,Clear,270,2012-10-09 14:15:00
8:35 AM,61.2,31.6,33,30.12,10.0,West,11.5,-,N/A,,Clear,270,2012-10-09 14:35:00
8:55 AM,64.2,32.0,30,30.12,10.0,West,9.2,-,N/A,,Clear,270,2012-10-09 14:55:00
9:15 AM,66.9,32.2,27,30.13,10.0,WNW,6.9,-,N/A,,Clear,290,2012-10-09 15:15:00
9:35 AM,69.1,32.5,26,30.13,10.0,WNW,3.5,-,N/A,,Clear,300,2012-10-09 15:35:00
9:55 AM,71.1,33.4,25,30.13,10.0,ENE,3.5,-,N/A,,Clear,70,2012-10-09 15:55:00
10:15 AM,73.0,33.8,24,30.14,10.0,WSW,4.6,-,N/A,,Clear,250,2012-10-09 16:15:00
10:35 AM,75.4,34.0,22,30.14,10.0,West,9.2,-,N/A,,Clear,260,2012-10-09 16:35:00
10:55 AM,77.2,33.6,21,30.14,10.0,West,10.4,-,N/A,,Clear,270,2012-10-09 16:55:00
11:15 AM,77.2,33.8,21,30.13,10.0,NE,6.9,-,N/A,,Clear,50,2012-10-09 17:15:00
11:35 AM,76.1,34.2,22,30.12,10.0,NE,5.8,-,N/A,,Clear,50,2012-10-09 17:35:00
11:55 AM,77.5,34.0,21,30.12,10.0,ENE,3.5,-,N/A,,Clear,70,2012-10-09 17:55:00
12:15 PM,79.2,33.8,19,30.12,10.0,Calm,Calm,-,N/A,,Clear,0,2012-10-09 18:15:00
12:35 PM,80.1,34.3,19,30.10,10.0,ESE,6.9,-,N/A,,Clear,110,2012-10-09 18:35:00
12:55 PM,80.8,33.3,18,30.09,10.0,Calm,Calm,-,N/A,,Clear,0,2012-10-09 18:55:00
1:15 PM,81.7,31.5,16,30.08,10.0,SW,3.5,16.1,N/A,,Clear,230,2012-10-09 19:15:00
1:35 PM,82.4,29.8,15,30.07,10.0,SW,10.4,17.3,N/A,,Clear,220,2012-10-09 19:35:00
1:55 PM,83.3,29.1,14,30.06,10.0,West,6.9,-,N/A,,Clear,260,2012-10-09 19:55:00
2:15 PM,83.1,28.8,14,30.06,10.0,West,11.5,-,N/A,,Clear,280,2012-10-09 20:15:00
2:35 PM,83.5,28.0,13,30.05,10.0,West,11.5,-,N/A,,Clear,270,2012-10-09 20:35:00
2:55 PM,82.0,29.5,15,30.04,10.0,SW,6.9,-,N/A,,Clear,220,2012-10-09 20:55:00
3:15 PM,83.7,27.5,13,30.04,10.0,WSW,12.7,18.4,N/A,,Clear,250,2012-10-09 21:15:00
3:35 PM,84.0,27.7,13,30.03,10.0,WSW,9.2,-,N/A,,Clear,250,2012-10-09 21:35:00
3:55 PM,82.9,27.9,13,30.03,10.0,WSW,10.4,-,N/A,,Clear,240,2012-10-09 21:55:00
4:15 PM,82.9,28.8,14,30.03,10.0,SSW,4.6,-,N/A,,Clear,210,2012-10-09 22:15:00
4:35 PM,83.5,28.4,14,30.03,10.0,SSW,8.1,-,N/A,,Clear,210,2012-10-09 22:35:00
4:55 PM,83.7,28.0,13,30.03,10.0,SW,4.6,10.4,N/A,,Clear,230,2012-10-09 22:55:00
5:15 PM,82.6,28.4,14,30.03,10.0,SSW,8.1,-,N/A,,Clear,210,2012-10-09 23:15:00
5:35 PM,82.8,26.8,13,30.02,10.0,West,11.5,-,N/A,,Clear,260,2012-10-09 23:35:00
5:55 PM,82.4,27.3,13,30.03,10.0,WSW,6.9,-,N/A,,Clear,240,2012-10-09 23:55:00
6:15 PM,81.5,26.1,13,30.03,10.0,WSW,9.2,-,N/A,,Clear,250,2012-10-10 00:15:00
6:35 PM,79.9,24.8,13,30.03,10.0,SW,6.9,-,N/A,,Clear,220,2012-10-10 00:35:00
6:55 PM,77.0,24.6,14,30.03,10.0,SW,6.9,-,N/A,,Clear,220,2012-10-10 00:55:00
7:15 PM,75.0,24.3,15,30.03,10.0,SSW,5.8,-,N/A,,Clear,210,2012-10-10 01:15:00
7:35 PM,73.8,23.7,15,30.04,10.0,SW,6.9,-,N/A,,Clear,220,2012-10-10 01:35:00
7:55 PM,69.8,23.9,18,30.04,10.0,WSW,5.8,-,N/A,,Clear,250,2012-10-10 01:55:00
8:15 PM,67.1,24.3,20,30.05,10.0,West,6.9,-,N/A,,Clear,260,2012-10-10 02:15:00
8:35 PM,66.9,24.8,20,30.06,10.0,West,5.8,-,N/A,,Clear,270,2012-10-10 02:35:00
8:55 PM,65.3,24.8,22,30.07,10.0,West,4.6,-,N/A,,Clear,260,2012-10-10 02:55:00
9:15 PM,64.0,25.2,23,30.08,10.0,West,5.8,-,N/A,,Clear,260,2012-10-10 03:15:00
9:35 PM,63.9,26.2,24,30.08,10.0,West,6.9,-,N/A,,Clear,270,2012-10-10 03:35:00
9:55 PM,61.3,26.2,26,30.08,10.0,West,5.8,-,N/A,,Clear,270,2012-10-10 03:55:00
10:15 PM,59.0,25.2,27,30.09,10.0,West,5.8,-,N/A,,Clear,260,2012-10-10 04:15:00
10:35 PM,57.7,25.2,29,30.09,10.0,West,5.8,-,N/A,,Clear,260,2012-10-10 04:35:00
10:55 PM,60.1,26.6,28,30.09,10.0,West,8.1,-,N/A,,Clear,270,2012-10-10 04:55:00
11:15 PM,59.9,26.6,28,30.09,10.0,West,6.9,-,N/A,,Clear,280,2012-10-10 05:15:00
11:35 PM,58.8,26.6,29,30.09,10.0,West,6.9,-,N/A,,Clear,270,2012-10-10 05:35:00
11:55 PM,63.1,26.6,25,30.09,10.0,West,8.1,-,N/A,,Clear,280,2012-10-10 05:55:00